Year,Month,Day,Hour,Minute,Value (Times are PST for temperature in C)
2019,03,12,00,00,3.80
2019,03,12,00,01,3.80
2019,03,12,00,02,3.80
2019,03,12,00,03,3.80
2019,03,12,00,04,3.80
2019,03,12,00,05,3.80
2019,03,12,00,06,3.80
2019,03,12,00,07,3.80
2019,03,12,00,08,3.80
2019,03,12,00,09,3.80
2019,03,12,00,10,3.80
2019,03,12,00,11,3.80
2019,03,12,00,12,3.80
2019,03,12,00,13,3.80
2019,03,12,00,14,3.80
2019,03,12,00,15,3.80
2019,03,12,00,16,3.80
2019,03,12,00,17,3.80
2019,03,12,00,18,3.80
2019,03,12,00,19,3.80
2019,03,12,00,20,3.80
2019,03,12,00,21,3.80
2019,03,12,00,22,3.80
2019,03,12,00,23,3.80
2019,03,12,00,24,3.80
2019,03,12,00,25,3.80
2019,03,12,00,26,3.80
2019,03,12,00,27,3.80
2019,03,12,00,28,3.80
2019,03,12,00,29,3.80
2019,03,12,00,30,3.80
2019,03,12,00,31,3.80
2019,03,12,00,32,3.80
2019,03,12,00,33,3.80
2019,03,12,00,34,3.80
2019,03,12,00,35,3.80
2019,03,12,00,36,3.80
2019,03,12,00,37,3.80
2019,03,12,00,38,3.80
2019,03,12,00,39,3.80
2019,03,12,00,40,3.80
2019,03,12,00,41,3.80
2019,03,12,00,42,3.80
2019,03,12,00,43,3.80
2019,03,12,00,44,3.80
2019,03,12,00,45,3.80
2019,03,12,00,46,3.80
2019,03,12,00,47,3.80
2019,03,12,00,48,3.80
2019,03,12,00,49,3.80
2019,03,12,00,50,3.80
2019,03,12,00,51,3.80
2019,03,12,00,52,3.80
2019,03,12,00,53,3.80
2019,03,12,00,54,3.80
2019,03,12,00,55,3.80
2019,03,12,00,56,3.80
2019,03,12,00,57,3.80
2019,03,12,00,58,3.80
2019,03,12,00,59,3.80
2019,03,12,01,00,3.80
2019,03,12,01,01,3.80
2019,03,12,01,02,3.80
2019,03,12,01,03,3.80
2019,03,12,01,04,3.90
2019,03,12,01,05,3.90
2019,03,12,01,06,3.90
2019,03,12,01,07,3.90
2019,03,12,01,08,3.90
2019,03,12,01,09,3.90
2019,03,12,01,10,3.90
2019,03,12,01,11,3.90
2019,03,12,01,12,3.90
2019,03,12,01,13,3.90
2019,03,12,01,14,3.80
2019,03,12,01,15,3.80
2019,03,12,01,16,3.80
2019,03,12,01,17,3.90
2019,03,12,01,18,3.90
2019,03,12,01,19,3.90
2019,03,12,01,20,3.90
2019,03,12,01,21,3.90
2019,03,12,01,22,3.90
2019,03,12,01,23,3.90
2019,03,12,01,24,3.90
2019,03,12,01,25,3.90
2019,03,12,01,26,3.90
2019,03,12,01,27,3.90
2019,03,12,01,28,3.90
2019,03,12,01,29,3.90
2019,03,12,01,30,3.90
2019,03,12,01,31,3.90
2019,03,12,01,32,3.90
2019,03,12,01,33,3.90
2019,03,12,01,34,3.90
2019,03,12,01,35,3.90
2019,03,12,01,36,3.90
2019,03,12,01,37,3.90
2019,03,12,01,38,3.80
2019,03,12,01,39,3.80
2019,03,12,01,40,3.80
2019,03,12,01,41,3.90
2019,03,12,01,42,3.90
2019,03,12,01,43,3.90
2019,03,12,01,44,3.90
2019,03,12,01,45,3.80
2019,03,12,01,46,3.80
2019,03,12,01,47,3.80
2019,03,12,01,48,3.80
2019,03,12,01,49,3.90
2019,03,12,01,50,3.90
2019,03,12,01,51,3.80
2019,03,12,01,52,3.90
2019,03,12,01,53,3.90
2019,03,12,01,54,3.90
2019,03,12,01,55,3.80
2019,03,12,01,56,3.90
2019,03,12,01,57,3.90
2019,03,12,01,58,3.90
2019,03,12,01,59,3.90
2019,03,12,02,00,3.90
2019,03,12,02,01,3.90
2019,03,12,02,02,3.90
2019,03,12,02,03,3.80
2019,03,12,02,04,3.80
2019,03,12,02,05,3.80
2019,03,12,02,06,3.80
2019,03,12,02,07,3.80
2019,03,12,02,08,3.80
2019,03,12,02,09,3.80
2019,03,12,02,10,3.80
2019,03,12,02,11,3.80
2019,03,12,02,12,3.80
2019,03,12,02,13,3.80
2019,03,12,02,14,3.80
2019,03,12,02,15,3.80
2019,03,12,02,16,3.80
2019,03,12,02,17,3.80
2019,03,12,02,18,3.80
2019,03,12,02,19,3.80
2019,03,12,02,20,3.80
2019,03,12,02,21,3.80
2019,03,12,02,22,3.80
2019,03,12,02,23,3.80
2019,03,12,02,24,3.80
2019,03,12,02,25,3.80
2019,03,12,02,26,3.80
2019,03,12,02,27,3.80
2019,03,12,02,28,3.80
2019,03,12,02,29,3.80
2019,03,12,02,30,3.80
2019,03,12,02,31,3.80
2019,03,12,02,32,3.80
2019,03,12,02,33,3.80
2019,03,12,02,34,3.80
2019,03,12,02,35,3.80
2019,03,12,02,36,3.80
2019,03,12,02,37,3.80
2019,03,12,02,38,3.80
2019,03,12,02,39,3.80
2019,03,12,02,40,3.80
2019,03,12,02,41,3.80
2019,03,12,02,42,3.80
2019,03,12,02,43,3.80
2019,03,12,02,44,3.80
2019,03,12,02,45,3.80
2019,03,12,02,46,3.80
2019,03,12,02,47,3.80
2019,03,12,02,48,3.80
2019,03,12,02,49,3.80
2019,03,12,02,50,3.80
2019,03,12,02,51,3.80
2019,03,12,02,52,3.80
2019,03,12,02,53,3.80
2019,03,12,02,54,3.80
2019,03,12,02,55,3.80
2019,03,12,02,56,3.80
2019,03,12,02,57,3.80
2019,03,12,02,58,3.80
2019,03,12,02,59,3.80
2019,03,12,03,00,3.80
2019,03,12,03,01,3.80
2019,03,12,03,02,3.80
2019,03,12,03,03,3.90
2019,03,12,03,04,3.90
2019,03,12,03,05,3.90
2019,03,12,03,06,3.90
2019,03,12,03,07,3.90
2019,03,12,03,08,3.90
2019,03,12,03,09,3.90
2019,03,12,03,10,3.80
2019,03,12,03,11,3.80
2019,03,12,03,12,3.80
2019,03,12,03,13,3.80
2019,03,12,03,14,3.80
2019,03,12,03,15,3.80
2019,03,12,03,16,3.80
2019,03,12,03,17,3.80
2019,03,12,03,18,3.80
2019,03,12,03,19,3.80
2019,03,12,03,20,3.80
2019,03,12,03,21,3.80
2019,03,12,03,22,3.80
2019,03,12,03,23,3.80
2019,03,12,03,24,3.80
2019,03,12,03,25,3.80
2019,03,12,03,26,3.80
2019,03,12,03,27,3.80
2019,03,12,03,28,3.80
2019,03,12,03,29,3.80
2019,03,12,03,30,3.80
2019,03,12,03,31,3.80
2019,03,12,03,32,3.80
2019,03,12,03,33,3.80
2019,03,12,03,34,3.80
2019,03,12,03,35,3.80
2019,03,12,03,36,3.70
2019,03,12,03,37,3.70
2019,03,12,03,38,3.70
2019,03,12,03,39,3.70
2019,03,12,03,40,3.70
2019,03,12,03,41,3.70
2019,03,12,03,42,3.70
2019,03,12,03,43,3.70
2019,03,12,03,44,3.70
2019,03,12,03,45,3.70
2019,03,12,03,46,3.70
2019,03,12,03,47,3.70
2019,03,12,03,48,3.70
2019,03,12,03,49,3.70
2019,03,12,03,50,3.70
2019,03,12,03,51,3.70
2019,03,12,03,52,3.70
2019,03,12,03,53,3.70
2019,03,12,03,54,3.70
2019,03,12,03,55,3.70
2019,03,12,03,56,3.70
2019,03,12,03,57,3.70
2019,03,12,03,58,3.70
2019,03,12,03,59,3.70
2019,03,12,04,00,3.70
2019,03,12,04,01,3.70
2019,03,12,04,02,3.70
2019,03,12,04,03,3.70
2019,03,12,04,04,3.70
2019,03,12,04,05,3.70
2019,03,12,04,06,3.70
2019,03,12,04,07,3.70
2019,03,12,04,08,3.70
2019,03,12,04,09,3.70
2019,03,12,04,10,3.70
2019,03,12,04,11,3.70
2019,03,12,04,12,3.70
2019,03,12,04,13,3.70
2019,03,12,04,14,3.70
2019,03,12,04,15,3.70
2019,03,12,04,16,3.70
2019,03,12,04,17,3.70
2019,03,12,04,18,3.70
2019,03,12,04,19,3.70
2019,03,12,04,20,3.70
2019,03,12,04,21,3.70
2019,03,12,04,22,3.70
2019,03,12,04,23,3.70
2019,03,12,04,24,3.70
2019,03,12,04,25,3.70
2019,03,12,04,26,3.70
2019,03,12,04,27,3.70
2019,03,12,04,28,3.70
2019,03,12,04,29,3.70
2019,03,12,04,30,3.70
2019,03,12,08,27,4.00
2019,03,12,08,28,4.00
2019,03,12,08,29,4.00
2019,03,12,08,30,4.00
2019,03,12,08,31,4.00
2019,03,12,08,32,4.00
2019,03,12,08,33,4.00
2019,03,12,08,34,4.10
2019,03,12,08,35,4.10
2019,03,12,08,36,4.10
2019,03,12,08,37,4.10
2019,03,12,08,38,4.10
2019,03,12,08,39,4.10
2019,03,12,08,40,4.10
2019,03,12,08,41,4.10
2019,03,12,08,42,4.10
2019,03,12,08,43,4.10
2019,03,12,08,44,4.10
2019,03,12,08,45,4.20
2019,03,12,08,46,4.20
2019,03,12,08,47,4.20
2019,03,12,08,48,4.20
2019,03,12,08,49,4.20
2019,03,12,08,50,4.20
2019,03,12,08,51,4.20
2019,03,12,08,52,4.20
2019,03,12,08,53,4.30
2019,03,12,08,54,4.30
2019,03,12,08,55,4.30
2019,03,12,08,56,4.30
2019,03,12,08,57,4.30
2019,03,12,08,58,4.30
2019,03,12,08,59,4.30
2019,03,12,09,00,4.30
2019,03,12,09,01,4.30
2019,03,12,09,02,4.30
2019,03,12,09,03,4.30
2019,03,12,09,04,4.30
2019,03,12,09,05,4.30
2019,03,12,09,06,4.30
2019,03,12,09,07,4.30
2019,03,12,09,08,4.30
2019,03,12,09,09,4.30
2019,03,12,09,10,4.30
2019,03,12,09,11,4.30
2019,03,12,09,12,4.30
2019,03,12,09,13,4.30
2019,03,12,09,14,4.30
2019,03,12,09,15,4.30
2019,03,12,09,16,4.30
2019,03,12,09,17,4.30
2019,03,12,09,18,4.30
2019,03,12,09,19,4.30
2019,03,12,09,20,4.30
2019,03,12,09,21,4.40
2019,03,12,09,22,4.40
2019,03,12,09,23,4.40
2019,03,12,09,24,4.40
2019,03,12,09,25,4.40
2019,03,12,09,26,4.40
2019,03,12,09,27,4.40
2019,03,12,09,28,4.40
2019,03,12,09,29,4.40
2019,03,12,09,30,4.40
2019,03,12,09,31,4.40
2019,03,12,09,32,4.40
2019,03,12,09,33,4.50
2019,03,12,09,34,4.50
2019,03,12,09,35,4.50
2019,03,12,09,36,4.50
2019,03,12,09,37,4.50
2019,03,12,09,38,4.50
2019,03,12,09,39,4.60
2019,03,12,09,40,4.60
2019,03,12,09,41,4.60
2019,03,12,09,42,4.60
2019,03,12,09,43,4.60
2019,03,12,09,44,4.60
2019,03,12,09,45,4.60
2019,03,12,09,46,4.60
2019,03,12,09,47,4.70
2019,03,12,09,48,4.70
2019,03,12,09,49,4.70
2019,03,12,09,50,4.70
2019,03,12,09,51,4.70
2019,03,12,09,52,4.80
2019,03,12,09,53,4.80
2019,03,12,09,54,4.80
2019,03,12,09,55,4.80
2019,03,12,09,56,4.80
2019,03,12,09,57,4.80
2019,03,12,09,58,4.80
2019,03,12,09,59,4.80
2019,03,12,10,00,4.80
2019,03,12,10,01,4.90
2019,03,12,10,02,4.90
2019,03,12,10,03,4.90
2019,03,12,10,04,4.90
2019,03,12,10,05,4.90
2019,03,12,10,06,4.90
2019,03,12,10,07,4.90
2019,03,12,10,08,4.90
2019,03,12,10,09,4.90
2019,03,12,10,10,5.00
2019,03,12,10,11,5.00
2019,03,12,10,12,5.00
2019,03,12,10,13,5.00
2019,03,12,10,14,5.00
2019,03,12,10,15,5.00
2019,03,12,10,16,5.00
2019,03,12,10,17,5.00
2019,03,12,10,18,5.00
2019,03,12,10,19,5.00
2019,03,12,10,20,5.00
2019,03,12,10,21,5.00
2019,03,12,10,22,5.00
2019,03,12,10,23,5.10
2019,03,12,10,24,5.10
2019,03,12,10,25,5.10
2019,03,12,10,26,5.10
2019,03,12,10,27,5.10
2019,03,12,10,28,5.10
2019,03,12,10,29,5.20
2019,03,12,10,30,5.20
2019,03,12,10,31,5.20
2019,03,12,10,32,5.20
2019,03,12,10,33,5.20
2019,03,12,10,34,5.20
2019,03,12,10,35,5.20
2019,03,12,10,36,5.20
2019,03,12,10,37,5.20
2019,03,12,10,38,5.20
2019,03,12,10,39,5.20
2019,03,12,10,40,5.20
2019,03,12,10,41,5.20
2019,03,12,10,42,5.20
2019,03,12,10,43,5.30
2019,03,12,10,44,5.30
2019,03,12,10,45,5.30
2019,03,12,10,46,5.30
2019,03,12,10,47,5.30
2019,03,12,10,48,5.30
2019,03,12,10,49,5.30
2019,03,12,10,50,5.30
2019,03,12,10,51,5.30
2019,03,12,10,52,5.40
2019,03,12,10,53,5.40
2019,03,12,10,54,5.40
2019,03,12,10,55,5.40
2019,03,12,10,56,5.50
2019,03,12,10,57,5.50
2019,03,12,10,58,5.60
2019,03,12,10,59,5.60
2019,03,12,11,00,5.60
2019,03,12,11,01,5.70
2019,03,12,11,02,5.70
2019,03,12,11,03,5.80
2019,03,12,11,04,5.80
2019,03,12,11,05,5.90
2019,03,12,11,06,5.90
2019,03,12,11,07,5.90
2019,03,12,11,08,5.90
2019,03,12,11,09,5.90
2019,03,12,11,10,5.90
2019,03,12,11,11,5.90
2019,03,12,11,12,5.90
2019,03,12,11,13,5.90
2019,03,12,11,14,5.90
2019,03,12,11,15,5.80
2019,03,12,11,16,5.80
2019,03,12,11,17,5.80
2019,03,12,11,18,5.90
2019,03,12,11,19,5.90
2019,03,12,11,20,5.90
2019,03,12,11,21,5.90
2019,03,12,11,22,5.90
2019,03,12,11,23,5.90
2019,03,12,11,24,5.90
2019,03,12,11,25,5.90
2019,03,12,11,26,5.90
2019,03,12,11,27,5.90
2019,03,12,11,28,6.00
2019,03,12,11,29,5.90
2019,03,12,11,30,5.90
2019,03,12,11,31,6.00
2019,03,12,11,32,6.00
2019,03,12,11,33,6.00
2019,03,12,11,34,6.00
2019,03,12,11,35,6.00
2019,03,12,11,36,6.10
2019,03,12,11,37,6.10
2019,03,12,11,38,6.00
2019,03,12,11,39,6.10
2019,03,12,11,40,6.10
2019,03,12,11,41,6.10
2019,03,12,11,42,6.10
2019,03,12,11,43,6.10
2019,03,12,11,44,6.10
2019,03,12,11,45,6.10
2019,03,12,11,46,6.10
2019,03,12,11,47,6.10
2019,03,12,11,48,6.10
2019,03,12,11,49,6.20
2019,03,12,11,50,6.20
2019,03,12,11,51,6.20
2019,03,12,11,52,6.30
2019,03,12,11,53,6.30
2019,03,12,11,54,6.30
2019,03,12,11,55,6.30
2019,03,12,11,56,6.30
2019,03,12,11,57,6.30
2019,03,12,11,58,6.30
2019,03,12,11,59,6.30
2019,03,12,12,00,6.40
2019,03,12,12,01,6.40
2019,03,12,12,02,6.40
2019,03,12,12,03,6.50
2019,03,12,12,04,6.50
2019,03,12,12,05,6.50
2019,03,12,12,06,6.60
2019,03,12,12,07,6.50
2019,03,12,12,08,6.60
2019,03,12,12,09,6.60
2019,03,12,12,10,6.60
2019,03,12,12,11,6.60
2019,03,12,12,12,6.60
2019,03,12,12,13,6.60
2019,03,12,12,14,6.70
2019,03,12,12,15,6.70
2019,03,12,12,16,6.70
2019,03,12,12,17,6.70
2019,03,12,12,18,6.70
2019,03,12,12,19,6.70
2019,03,12,12,20,6.80
2019,03,12,12,21,6.80
2019,03,12,12,22,6.80
2019,03,12,12,23,6.80
2019,03,12,12,24,6.90
2019,03,12,12,25,6.90
2019,03,12,12,26,6.90
2019,03,12,12,27,6.90
2019,03,12,12,28,6.90
2019,03,12,12,29,6.90
2019,03,12,12,30,6.90
2019,03,12,12,31,6.90
2019,03,12,12,32,6.90
2019,03,12,12,33,6.90
2019,03,12,12,34,7.00
2019,03,12,12,35,7.00
2019,03,12,12,36,7.00
2019,03,12,12,37,7.00
2019,03,12,12,38,7.10
2019,03,12,12,39,7.10
2019,03,12,12,40,7.20
2019,03,12,12,41,7.20
2019,03,12,12,42,7.20
2019,03,12,12,43,7.20
2019,03,12,12,44,7.20
2019,03,12,12,45,7.20
2019,03,12,12,46,7.30
2019,03,12,12,47,7.30
2019,03,12,12,48,7.40
2019,03,12,12,49,7.40
2019,03,12,12,50,7.40
2019,03,12,12,51,7.50
2019,03,12,12,52,7.50
2019,03,12,12,53,7.50
2019,03,12,12,54,7.60
2019,03,12,12,55,7.60
2019,03,12,12,56,7.70
2019,03,12,12,57,7.70
2019,03,12,12,58,7.70
2019,03,12,12,59,7.80
2019,03,12,13,00,7.80
2019,03,12,13,01,7.80
2019,03,12,13,02,7.80
2019,03,12,13,03,7.80
2019,03,12,13,04,7.90
2019,03,12,13,05,7.90
2019,03,12,13,06,7.90
2019,03,12,13,07,7.90
2019,03,12,13,08,7.90
2019,03,12,13,09,8.00
2019,03,12,13,10,8.00
2019,03,12,13,11,8.10
2019,03,12,13,12,8.10
2019,03,12,13,13,8.20
2019,03,12,13,14,8.20
2019,03,12,13,15,8.20
2019,03,12,13,16,8.30
2019,03,12,13,17,8.30
2019,03,12,13,18,8.30
2019,03,12,13,19,8.30
2019,03,12,13,20,8.40
2019,03,12,13,21,8.40
2019,03,12,13,22,8.50
2019,03,12,13,23,8.50
2019,03,12,13,24,8.60
2019,03,12,13,25,8.60
2019,03,12,13,26,8.70
2019,03,12,13,27,8.70
2019,03,12,13,28,8.70
2019,03,12,13,29,8.60
2019,03,12,13,30,8.60
2019,03,12,13,31,8.70
2019,03,12,13,32,8.70
2019,03,12,13,33,8.70
2019,03,12,13,34,8.70
2019,03,12,13,35,8.70
2019,03,12,13,36,8.70
2019,03,12,13,37,8.70
2019,03,12,13,38,8.70
2019,03,12,13,39,8.70
2019,03,12,13,40,8.70
2019,03,12,13,41,8.70
2019,03,12,13,42,8.70
2019,03,12,13,43,8.80
2019,03,12,13,44,8.80
2019,03,12,13,45,8.80
2019,03,12,13,46,8.80
2019,03,12,13,47,8.80
2019,03,12,13,48,8.80
2019,03,12,13,49,8.80
2019,03,12,13,50,8.90
2019,03,12,13,51,8.90
2019,03,12,13,52,8.90
2019,03,12,13,53,9.00
2019,03,12,13,54,9.00
2019,03,12,13,55,9.00
2019,03,12,13,56,9.00
2019,03,12,13,57,9.10
2019,03,12,13,58,9.10
2019,03,12,13,59,9.10
2019,03,12,14,00,9.10
2019,03,12,14,01,9.10
2019,03,12,14,02,9.10
2019,03,12,14,03,9.10
2019,03,12,14,04,9.10
2019,03,12,14,05,9.20
2019,03,12,14,06,9.20
2019,03,12,14,07,9.20
2019,03,12,14,08,9.20
2019,03,12,14,09,9.20
2019,03,12,14,10,9.20
2019,03,12,14,11,9.30
2019,03,12,14,12,9.30
2019,03,12,14,13,9.30
2019,03,12,14,14,9.30
2019,03,12,14,15,9.30
2019,03,12,14,16,9.30
2019,03,12,14,17,9.30
2019,03,12,14,18,9.30
2019,03,12,14,19,9.30
2019,03,12,14,20,9.30
2019,03,12,14,21,9.30
2019,03,12,14,22,9.30
2019,03,12,14,23,9.30
2019,03,12,14,24,9.30
2019,03,12,14,25,9.30
2019,03,12,14,26,9.30
2019,03,12,14,27,9.40
2019,03,12,14,28,9.40
2019,03,12,14,29,9.40
2019,03,12,14,30,9.40
2019,03,12,14,31,9.40
2019,03,12,14,32,9.40
2019,03,12,14,33,9.40
2019,03,12,14,34,9.40
2019,03,12,14,35,9.40
2019,03,12,14,36,9.50
2019,03,12,14,37,9.60
2019,03,12,14,38,9.60
2019,03,12,14,39,9.70
2019,03,12,14,40,9.70
2019,03,12,14,41,9.70
2019,03,12,14,42,9.70
2019,03,12,14,43,9.60
2019,03,12,14,44,9.60
2019,03,12,14,45,9.60
2019,03,12,14,46,9.60
2019,03,12,14,47,9.60
2019,03,12,14,48,9.60
2019,03,12,14,49,9.60
2019,03,12,14,50,9.60
2019,03,12,14,51,9.70
2019,03,12,14,52,9.70
2019,03,12,14,53,9.80
2019,03,12,14,54,9.80
2019,03,12,14,55,9.80
2019,03,12,14,56,9.80
2019,03,12,14,57,9.80
2019,03,12,14,58,9.70
2019,03,12,14,59,9.70
2019,03,12,15,00,9.70
2019,03,12,15,01,9.70
2019,03,12,15,02,9.60
2019,03,12,15,03,9.50
2019,03,12,15,04,9.50
2019,03,12,15,05,9.40
2019,03,12,15,06,9.40
2019,03,12,15,07,9.40
2019,03,12,15,08,9.40
2019,03,12,15,09,9.40
2019,03,12,15,10,9.40
2019,03,12,15,11,9.40
2019,03,12,15,12,9.50
2019,03,12,15,13,9.50
2019,03,12,15,14,9.50
2019,03,12,15,15,9.40
2019,03,12,15,16,9.50
2019,03,12,15,17,9.40
2019,03,12,15,18,9.40
2019,03,12,15,19,9.40
2019,03,12,15,20,9.30
2019,03,12,15,21,9.30
2019,03,12,15,22,9.30
2019,03,12,15,23,9.30
2019,03,12,15,24,9.30
2019,03,12,15,25,9.30
2019,03,12,15,26,9.30
2019,03,12,15,27,9.30
2019,03,12,15,28,9.30
2019,03,12,15,29,9.30
2019,03,12,15,30,9.20
2019,03,12,15,31,9.20
2019,03,12,15,32,9.20
2019,03,12,15,33,9.20
2019,03,12,15,34,9.20
2019,03,12,15,35,9.20
2019,03,12,15,36,9.20
2019,03,12,15,37,9.20
2019,03,12,15,38,9.20
2019,03,12,15,39,9.20
2019,03,12,15,40,9.30
2019,03,12,15,41,9.30
2019,03,12,15,42,9.30
2019,03,12,15,43,9.30
2019,03,12,15,44,9.40
2019,03,12,15,45,9.40
2019,03,12,15,46,9.40
2019,03,12,15,47,9.40
2019,03,12,15,48,9.40
2019,03,12,15,49,9.40
2019,03,12,15,50,9.40
2019,03,12,15,51,9.40
2019,03,12,15,52,9.40
2019,03,12,15,53,9.30
2019,03,12,15,54,9.30
2019,03,12,15,55,9.20
2019,03,12,15,56,9.20
2019,03,12,15,57,9.10
2019,03,12,15,58,9.00
2019,03,12,15,59,9.00
2019,03,12,16,00,9.00
2019,03,12,16,01,8.90
2019,03,12,16,02,8.90
2019,03,12,16,03,8.80
2019,03,12,16,04,8.80
2019,03,12,16,05,8.80
2019,03,12,16,06,8.70
2019,03,12,16,07,8.70
2019,03,12,16,08,8.70
2019,03,12,16,09,8.70
2019,03,12,16,10,8.60
2019,03,12,16,11,8.60
2019,03,12,16,12,8.60
2019,03,12,16,13,8.60
2019,03,12,16,14,8.60
2019,03,12,16,15,8.60
2019,03,12,16,16,8.60
2019,03,12,16,17,8.60
2019,03,12,16,18,8.60
2019,03,12,16,19,8.60
2019,03,12,16,20,8.60
2019,03,12,16,21,8.60
2019,03,12,16,22,8.60
2019,03,12,16,23,8.60
2019,03,12,16,24,8.60
2019,03,12,16,25,8.60
2019,03,12,16,26,8.60
2019,03,12,16,27,8.60
2019,03,12,16,28,8.60
2019,03,12,16,29,8.60
2019,03,12,16,30,8.60
2019,03,12,16,31,8.60
2019,03,12,16,32,8.60
2019,03,12,16,33,8.60
2019,03,12,16,34,8.60
2019,03,12,16,35,8.50
2019,03,12,16,36,8.50
2019,03,12,16,37,8.50
2019,03,12,16,38,8.50
2019,03,12,16,39,8.50
2019,03,12,16,40,8.50
2019,03,12,16,41,8.40
2019,03,12,16,42,8.40
2019,03,12,16,43,8.40
2019,03,12,16,44,8.40
2019,03,12,16,45,8.40
2019,03,12,16,46,8.40
2019,03,12,16,47,8.30
2019,03,12,16,48,8.30
2019,03,12,16,49,8.30
2019,03,12,16,50,8.30
2019,03,12,16,51,8.30
2019,03,12,16,52,8.30
2019,03,12,16,53,8.30
2019,03,12,16,54,8.20
2019,03,12,16,55,8.20
2019,03,12,16,56,8.20
2019,03,12,16,57,8.20
2019,03,12,16,58,8.10
2019,03,12,16,59,8.10
2019,03,12,17,00,8.10
2019,03,12,17,01,8.00
2019,03,12,17,02,8.00
2019,03,12,17,03,8.00
2019,03,12,17,04,7.90
2019,03,12,17,05,7.90
2019,03,12,17,06,7.90
2019,03,12,17,07,7.90
2019,03,12,17,08,7.90
2019,03,12,17,09,7.90
2019,03,12,17,10,7.90
2019,03,12,17,11,7.90
2019,03,12,17,12,7.90
2019,03,12,17,13,7.90
2019,03,12,17,14,7.90
2019,03,12,17,15,7.90
2019,03,12,17,16,7.90
2019,03,12,17,17,7.90
2019,03,12,17,18,7.90
2019,03,12,17,19,7.90
2019,03,12,17,20,7.90
2019,03,12,17,21,7.90
2019,03,12,17,22,7.90
2019,03,12,17,23,7.90
2019,03,12,17,24,8.00
2019,03,12,17,25,8.00
2019,03,12,17,26,8.00
2019,03,12,17,27,8.00
2019,03,12,17,28,8.00
2019,03,12,17,29,8.00
2019,03,12,17,30,8.00
2019,03,12,17,31,8.00
2019,03,12,17,32,8.10
2019,03,12,17,33,8.10
2019,03,12,17,34,8.10
2019,03,12,17,35,8.10
2019,03,12,17,36,8.20
2019,03,12,17,37,8.20
2019,03,12,17,38,8.20
2019,03,12,17,39,8.20
2019,03,12,17,40,8.20
2019,03,12,17,41,8.20
2019,03,12,17,42,8.20
2019,03,12,17,43,8.20
2019,03,12,17,44,8.30
2019,03,12,17,45,8.30
2019,03,12,17,46,8.30
2019,03,12,17,47,8.30
2019,03,12,17,48,8.30
2019,03,12,17,49,8.30
2019,03,12,17,50,8.30
2019,03,12,17,51,8.30
2019,03,12,17,52,8.40
2019,03,12,17,53,8.40
2019,03,12,17,54,8.40
2019,03,12,17,55,8.30
2019,03,12,17,56,8.30
2019,03,12,17,57,8.30
2019,03,12,17,58,8.30
2019,03,12,17,59,8.20
2019,03,12,18,00,8.20
2019,03,12,18,01,8.10
2019,03,12,18,02,8.00
2019,03,12,18,03,8.00
2019,03,12,18,04,7.90
2019,03,12,18,05,7.80
2019,03,12,18,06,7.70
2019,03,12,18,07,7.60
2019,03,12,18,08,7.60
2019,03,12,18,09,7.50
2019,03,12,18,10,7.40
2019,03,12,18,11,7.40
2019,03,12,18,12,7.30
2019,03,12,18,13,7.30
2019,03,12,18,14,7.20
2019,03,12,18,15,7.20
2019,03,12,18,16,7.20
2019,03,12,18,17,7.10
2019,03,12,18,18,7.10
2019,03,12,18,19,7.10
2019,03,12,18,20,7.10
2019,03,12,18,21,7.10
2019,03,12,18,22,7.00
2019,03,12,18,23,7.00
2019,03,12,18,24,7.00
2019,03,12,18,25,7.00
2019,03,12,18,26,7.00
2019,03,12,18,27,6.90
2019,03,12,18,28,6.90
2019,03,12,18,29,6.90
2019,03,12,18,30,6.90
2019,03,12,18,31,6.90
2019,03,12,18,32,6.90
2019,03,12,18,33,6.90
2019,03,12,18,34,6.90
2019,03,12,18,35,6.90
2019,03,12,18,36,6.90
2019,03,12,18,37,6.90
2019,03,12,18,38,6.90
2019,03,12,18,39,6.90
2019,03,12,18,40,6.90
2019,03,12,18,41,6.90
2019,03,12,18,42,6.90
2019,03,12,18,43,6.90
2019,03,12,18,44,6.80
2019,03,12,18,45,6.80
2019,03,12,18,46,6.80
2019,03,12,18,47,6.80
2019,03,12,18,48,6.80
2019,03,12,18,49,6.80
2019,03,12,18,50,6.80
2019,03,12,18,51,6.80
2019,03,12,18,52,6.80
2019,03,12,18,53,6.80
2019,03,12,18,54,6.80
2019,03,12,18,55,6.80
2019,03,12,18,56,6.70
2019,03,12,18,57,6.70
2019,03,12,18,58,6.70
2019,03,12,18,59,6.70
2019,03,12,19,00,6.80
2019,03,12,19,01,6.70
2019,03,12,19,02,6.70
2019,03,12,19,03,6.70
2019,03,12,19,04,6.70
2019,03,12,19,05,6.70
2019,03,12,19,06,6.70
2019,03,12,19,07,6.70
2019,03,12,19,08,6.70
2019,03,12,19,09,6.70
2019,03,12,19,10,6.70
2019,03,12,19,11,6.70
2019,03,12,19,12,6.70
2019,03,12,19,13,6.70
2019,03,12,19,14,6.70
2019,03,12,19,15,6.70
2019,03,12,19,16,6.70
2019,03,12,19,17,6.70
2019,03,12,19,18,6.70
2019,03,12,19,19,6.70
2019,03,12,19,20,6.70
2019,03,12,19,21,6.70
2019,03,12,19,22,6.70
2019,03,12,19,23,6.70
2019,03,12,19,24,6.70
2019,03,12,19,25,6.70
2019,03,12,19,26,6.80
2019,03,12,19,27,6.80
2019,03,12,19,28,6.80
2019,03,12,19,29,6.80
2019,03,12,19,30,6.80
2019,03,12,19,31,6.80
2019,03,12,19,32,6.80
2019,03,12,19,33,6.80
2019,03,12,19,34,6.80
2019,03,12,19,35,6.80
2019,03,12,19,36,6.80
2019,03,12,19,37,6.80
2019,03,12,19,38,6.90
2019,03,12,19,39,6.90
2019,03,12,19,40,6.90
2019,03,12,19,41,6.90
2019,03,12,19,42,6.90
2019,03,12,19,43,6.90
2019,03,12,19,44,6.90
2019,03,12,19,45,6.90
2019,03,12,19,46,6.90
2019,03,12,19,47,6.90
2019,03,12,19,48,6.90
2019,03,12,19,49,6.90
2019,03,12,19,50,6.90
2019,03,12,19,51,6.90
2019,03,12,19,52,6.90
2019,03,12,19,53,6.90
2019,03,12,19,54,6.90
2019,03,12,19,55,6.90
2019,03,12,19,56,6.90
2019,03,12,19,57,6.90
2019,03,12,19,58,6.90
2019,03,12,19,59,6.90
2019,03,12,20,00,6.90
2019,03,12,20,01,6.90
2019,03,12,20,02,6.90
2019,03,12,20,03,6.90
2019,03,12,20,04,6.80
2019,03,12,20,05,6.80
2019,03,12,20,06,6.70
2019,03,12,20,07,6.70
2019,03,12,20,08,6.60
2019,03,12,20,09,6.60
2019,03,12,20,10,6.50
2019,03,12,20,11,6.40
2019,03,12,20,12,6.40
2019,03,12,20,13,6.40
2019,03,12,20,14,6.40
2019,03,12,20,15,6.30
2019,03,12,20,16,6.30
2019,03,12,20,17,6.30
2019,03,12,20,18,6.30
2019,03,12,20,19,6.30
2019,03,12,20,20,6.30
2019,03,12,20,21,6.30
2019,03,12,20,22,6.30
2019,03,12,20,23,6.30
2019,03,12,20,24,6.30
2019,03,12,20,25,6.30
2019,03,12,20,26,6.20
2019,03,12,20,27,6.20
2019,03,12,20,28,6.20
2019,03,12,20,29,6.20
2019,03,12,20,30,6.20
2019,03,12,20,31,6.20
2019,03,12,20,32,6.20
2019,03,12,20,33,6.20
2019,03,12,20,34,6.20
2019,03,12,20,35,6.20
2019,03,12,20,36,6.20
2019,03,12,20,37,6.20
2019,03,12,20,38,6.20
2019,03,12,20,39,6.20
2019,03,12,20,40,6.20
2019,03,12,20,41,6.20
2019,03,12,20,42,6.20
2019,03,12,20,43,6.20
2019,03,12,20,44,6.10
2019,03,12,20,45,6.10
2019,03,12,20,46,6.10
2019,03,12,20,47,6.10
2019,03,12,20,48,6.00
2019,03,12,20,49,6.00
2019,03,12,20,50,6.00
2019,03,12,20,51,5.90
2019,03,12,20,52,5.90
2019,03,12,20,53,5.90
2019,03,12,20,54,5.90
2019,03,12,20,55,5.80
2019,03,12,20,56,5.80
2019,03,12,20,57,5.80
2019,03,12,20,58,5.80
2019,03,12,20,59,5.70
2019,03,12,21,00,5.70
2019,03,12,21,01,5.70
2019,03,12,21,02,5.70
2019,03,12,21,03,5.60
2019,03,12,21,04,5.60
2019,03,12,21,05,5.60
2019,03,12,21,06,5.50
2019,03,12,21,07,5.50
2019,03,12,21,08,5.40
2019,03,12,21,09,5.40
2019,03,12,21,10,5.40
2019,03,12,21,11,5.30
2019,03,12,21,12,5.30
2019,03,12,21,13,5.30
2019,03,12,21,14,5.20
2019,03,12,21,15,5.20
2019,03,12,21,16,5.20
2019,03,12,21,17,5.20
2019,03,12,21,18,5.10
2019,03,12,21,19,5.10
2019,03,12,21,20,5.10
2019,03,12,21,21,5.10
2019,03,12,21,22,5.10
2019,03,12,21,23,5.00
2019,03,12,21,24,5.00
2019,03,12,21,25,5.00
2019,03,12,21,26,4.90
2019,03,12,21,27,4.90
2019,03,12,21,28,4.90
2019,03,12,21,29,4.90
2019,03,12,21,30,4.90
2019,03,12,21,31,4.90
2019,03,12,21,32,4.80
2019,03,12,21,33,4.80
2019,03,12,21,34,4.80
2019,03,12,21,35,4.80
2019,03,12,21,36,4.80
2019,03,12,21,37,4.80
2019,03,12,21,38,4.80
2019,03,12,21,39,4.80
2019,03,12,21,40,4.70
2019,03,12,21,41,4.70
2019,03,12,21,42,4.70
2019,03,12,21,43,4.70
2019,03,12,21,44,4.70
2019,03,12,21,45,4.70
2019,03,12,21,46,4.70
2019,03,12,21,47,4.70
2019,03,12,21,48,4.70
2019,03,12,21,49,4.70
2019,03,12,21,50,4.70
2019,03,12,21,51,4.70
2019,03,12,21,52,4.70
2019,03,12,21,53,4.60
2019,03,12,21,54,4.60
2019,03,12,21,55,4.60
2019,03,12,21,56,4.60
2019,03,12,21,57,4.60
2019,03,12,21,58,4.60
2019,03,12,21,59,4.60
2019,03,12,22,00,4.60
2019,03,12,22,01,4.60
2019,03,12,22,02,4.60